CZ-4B DEB, 43660

Orbit data source: Space-Track

CZ-4B DEB, 43660 is space debris in SSO originally from a launch on Wed, 24 Oct 2018 UTC launched from the Taiyaun Space Center, China (TSC). Debris objects in space refer to the collection of defunct objects orbiting the Earth. Examples of debris include non-operational satellites, rocket bodies, and fragments generated from explosions, collisions, or faulty payload assembly.

Loading next visibility...
Identifier
43660, 2018-081D
Orbit
SSO
Country
Flag of CNCN / PRC
Related business
Manufacturer
SAST
Mission
Spacecraft
Bus & Motor
Unknown
Mass
Unknown
Launch date (UTC)
2018-10-24 (8 years ago)
Launch vehicle
Unknown
Launch site
Taiyaun Space Center, China (TSC)
Object type
Payload
Rocket body
Debris
Shape & HBR
Unknown shape, 0.1 m
Radar Cross Section
Small (<0.1 m²)

Expand to show TLE details & history
Last TLE update: 19 hours ago

TLE from 19 hours ago
0 CZ-4B DEB
1 43660U 18081D   26127.03933433  .00000048  00000-0  73742-4 0  9992
2 43660  99.1108 156.2709 0014346 108.9098 251.3618 13.90598548382193
Epoch: 2026-05-07T00:56Z
TLE epoch observation values (Epoch: 2026-05-07T00:56:38.486Z)
Latitude
0.00006°
Longitude
-82.78067°
Altitude
932.758 km
Speed
7.384 km/s
True Right ascension
10h 25m 05s
True Declination
0° 00' 00"
Sunlit
Object was in daylight at epoch
Visualization orbit readout
Latitude
Unknown
Longitude
Unknown
Altitude
Unknown
Speed
Unknown
Apparent Right ascension
Unknown
Apparent Declination
Unknown
Sunlit
N/A
Visualization observer readout
Local Sidereal Time
03:53:07
Azimuth
Unknown
Elevation
Unknown
Doppler factor
Unknown
Orbital elements
Apogee altitude
934.227 km
Perigee altitude
913.276 km
Semi-major axis
7,301.888 km
Eccentricity
0.00143
Inclination
99.1108°
RAAN
156.2709°
Arg. of periapsis
108.9098°
True anomaly
251.20612°
Mean anomaly
251.3618°
Eccentric anomaly
251.28395°
Mean motion
3.47849 °/min
Orbital period
103.49 mins
BSTAR
0.000073742
Loading maneuver chart data...
Computing Atmospheric mass density...
Loading historical data...
Loading historical data...
Loading historical data...
Loading historical data...
Loading historical data...
Loading historical data...
Loading historical data...

Documentation

Showing up to 5 results
|